Regional Weather Roundup
Issued by NWS

Home | Current Version | Previous Version | Graphics & Text | Print | Product List | Glossary On
Versions: 1 2 3 4 5 6 7 8 9 10 11 12 13 14 15 16 17 18 19 20 21 22 23 24 25 26 27 28 29 30 31 32 33 34 35 36 37 38 39 40 41 42 43 44 45 46 47 48 49 50
000
ASUS43 KLOT 281703
RWRIL

ILLINOIS REGIONAL WEATHER ROUNDUP
NATIONAL WEATHER SERVICE CHICAGO/ROMEOVILLE IL
1200 PM CDT TUE MAR 28 2017

NOTE: "FAIR" INDICATES FEW OR NO CLOUDS BELOW 12,000 FEET WITH NO
SIGNIFICANT WEATHER AND/OR OBSTRUCTIONS TO VISIBILITY.

* THESE STATIONS ARE NOT UNDER NWS QUALITY CONTROL. THEY ALSO MAY NOT
  REPORT WEATHER SUCH AS PRECIPITATION OR FOG.

ILZ001-002-007-009-015-016-024-281800-
NORTHWEST ILLINOIS

CITY           SKY/WX    TMP DP  RH WIND       PRES   REMARKS
MOLINE         CLOUDY    48  45  89 E9        30.13R FOG
STERLING*      CLOUDY    48  42  80 NE8       30.15R
SAVANNA*       CLOUDY    48  41  76 NE8       30.15R
$$

ILZ003-004-008-010-011-017-018-281800-
NORTH CENTRAL ILLINOIS

CITY           SKY/WX    TMP DP  RH WIND       PRES   REMARKS
ROCKFORD       CLOUDY    47  37  68 NE7       30.16S
FREEPORT*      CLOUDY    44  38  79 NE10      30.16S
ROCHELLE*      CLOUDY    43  39  84 NE9       30.14S
DE KALB*       CLOUDY    44  38  81 NE10      30.14S
$$

ILZ005-006-012>014-019>023-281800-
NORTHEAST ILLINOIS

CITY           SKY/WX    TMP DP  RH WIND       PRES   REMARKS
CHICAGO-OHARE  CLOUDY    46  38  73 NE12      30.12S
CHICAGO-MIDWAY CLOUDY    44  38  79 N9        30.13S
AURORA         CLOUDY    46  38  73 NE8       30.13R
LANSING*       CLOUDY    42  39  89 N8        30.13S
JOLIET*        CLOUDY    46  40  78 NE9       30.13S
WAUKEGAN       CLOUDY    42  38  85 NE13      30.13S
DUPAGE AIRPORT CLOUDY    45  39  79 NE6       30.12F
WHEELING       CLOUDY    45  38  76 N12       30.14S
MORRIS*        CLOUDY    47  40  76 NE6       30.12R
NORTHERLY ISL    N/A     40  36  86 N15         N/A
$$

LMZ740>746-281800-
SOUTHERN LAKE MICHIGAN

STATION/POSITION SKY/WX   TEMP    WIND        PRES    VSBY  WAVE
                          AIR SEA DIR/SP/G                  HT/PER
                          (F)     (DEG/KT/KT) (MB)    (MI)  (FT/S)
CALUMET HARBOR             40     330/ 12/ 16 1019.8S
BURNS HARBOR               38     330/  9/ 12 1020.7R
$$

ILZ025>027-034>036-040-047-049-050-058-095>099-281800-
WEST-CENTRAL ILLINOIS

CITY           SKY/WX    TMP DP  RH WIND       PRES   REMARKS
QUINCY         CLOUDY    53  48  83 NE7       30.10R
GALESBURG*     CLOUDY    49  46  90 E7        30.12S FOG
MACOMB*        CLOUDY    51  47  87 E7        30.14R
JACKSONVILLE*  CLOUDY    50  49  93 NE6       30.11R FOG
PITTSFIELD*    CLOUDY    54  49  83 NE5       30.11S
$$

ILZ028>032-037-038-041>044-048-051>054-059>061-281800-
CENTRAL ILLINOIS

CITY           SKY/WX    TMP DP  RH WIND       PRES   REMARKS
PONTIAC        CLOUDY    49  45  84 N9        30.12F
BLOOMINGTON    CLOUDY    48  42  80 NE8       30.12S
DECATUR        CLOUDY    53  43  68 NE8       30.10S
PEORIA         CLOUDY    50  43  77 VRB5      30.12S
SPRINGFIELD    CLOUDY    53  46  77 NE5       30.11R HAZE
TAYLORVILLE    NOT AVBL
$$

ILZ033-039-045-046-055>057-062-063-281800-
EAST-CENTRAL ILLINOIS

CITY           SKY/WX    TMP DP  RH WIND       PRES   REMARKS
CHAMPAIGN      CLOUDY    52  43  71 N9        30.09S
RANTOUL*       CLOUDY    50  42  75 N8        30.10S
MATTOON        MOSUNNY   56  47  71 NE10G20   30.07S
PARIS*         PTSUNNY   55  47  76 NE14      30.08F
$$

ILZ079-100>102-281800-
SOUTHWEST ILLINOIS

CITY           SKY/WX    TMP DP  RH WIND       PRES   REMARKS
ALTON          CLOUDY    55  46  71 NE8       30.09S
BELLEVILLE     CLOUDY    57  49  75 NE6       30.08S
CAHOKIA*       CLOUDY    57  48  72 E3        30.10R
SPARTA*        CLOUDY    53  49  85 N7        30.10R
$$

ILZ064>066-069>071-074>076-080>082-084>086-088>090-092>094-281800-
SOUTH-CENTRAL ILLINOIS

CITY           SKY/WX    TMP DP  RH WIND       PRES   REMARKS
CARBONDALE     CLOUDY    56  50  80 N7        30.09R
CAIRO*         CLOUDY    57  52  82 N6        30.08S
EFFINGHAM*     CLOUDY    55  49  80 W6        30.10R
MARION         CLOUDY    57  54  88 N6        30.10R
MT. VERNON     CLOUDY    56  48  74 VRB3      30.07F
CENTRALIA*     CLOUDY    55  48  79 NE6       30.08S
SALEM*         CLOUDY    54  47  77 N8        30.09S
$$

ILZ067-068-072-073-078-083-087-091-281800-
SOUTHEAST ILLINOIS

CITY           SKY/WX    TMP DP  RH WIND       PRES   REMARKS
LAWRENCEVILLE  CLOUDY    58  50  75 N5        30.06S
FLORA*         CLOUDY    57  48  73 N7        30.08S
FAIRFIELD*     CLOUDY    56  49  77 N6        30.07S
HARRISBURG*    CLOUDY    56  51  82 NE8       30.07F
ROBINSON*      SUNNY     55  49  80 N6        30.07S
CARMI*         CLOUDY    58  52  78 N8        30.06S
$$

ABBREVIATIONS USED IN REMARKS
   TC - TEMPERATURE IN CELSIUS
  WCI - WIND CHILL INDEX
   HX - HEAT INDEX
  VSB - VISIBILITY
$$





USA.gov is the U.S. government's official web portal to all federal, state and local government web resources and services.